[[{"header":{"parameterUnit":"m.s-1","parameterCategory":2,"la1":30.2991,"la2":30.254,"lo1":-89.0895,"lo2":-89.0444,"dy":0.0017,"dx":0.0017,"nx":28,"ny":28,"refTime":"2024-08-06T09:00:00:Z","depth":"0","parameterNumber":2,"parameterNumberName":"U-component_of_CURRENTS"},"data":[0,0,0,0,0,0,0,0,0,0,0,0,0,0,0,0,0,0,0,0,0,0,0,0,0,0,0,0,0,0,0,0,0,0,0,0,0,0,0,0,0,0,0,0,0,0,0,0,0,0,0,0,0,0,0,0,0,0,0.3957,0.3957,0,0.3931,0.3931,0.393,0.3882,0.3881,0.388,0.388,0.3795,0.3793,0.3792,0,0,0,0,0,0,0,0,0,0,0,0,0,0.3934,0.3935,0.3957,0.3957,0.3957,0.3931,0.393,0.393,0.3882,0.3881,0.388,0.3879,0.3795,0.3793,0.3791,0,0,0,0,0,0,0,0,0,0,0,0,0,0.3927,0.3935,0.3957,0.3932,0.393,0.3931,0.393,0.393,0.3882,0.3881,0.388,0.3879,0.3796,0.3794,0.3791,0.3796,0,0,0.3784,0.3783,0,0,0,0,0,0,0,0,0.3927,0.3928,0.3936,0.3934,0.3931,0.3911,0.3891,0.3883,0.3882,0.3897,0.388,0.3878,0.3831,0.3825,0.382,0.3792,0.3789,0.3783,0.3782,0.3781,0.378,0,0,0,0,0,0,0,0.3928,0.3928,0.3944,0.3936,0.3933,0.3911,0.3909,0.3889,0.3867,0.3896,0.3893,0.3895,0.3829,0.3822,0.3817,0.3787,0.3783,0.3781,0.378,0.3779,0.3784,0.3786,0,0,0,0,0,0,0.394,0.3929,0.3945,0.3943,0.393,0.3913,0.391,0.3916,0.3868,0.3861,0.3896,0.3893,0.3827,0.382,0.3814,0.3849,0.3781,0.3779,0.3777,0.3783,0.3785,0.3786,0,0,0,0,0,0,0.394,0.3942,0.3946,0.3937,0.3937,0.3915,0.3922,0.3916,0.3916,0.3869,0.386,0.3902,0.3826,0.3817,0.3808,0.3844,0.3777,0.3775,0.3781,0.3783,0.3786,0.3899,0,0,0,0,0,0,0.3939,0.3942,0.3953,0.3939,0.3938,0.3956,0.3923,0.3917,0.392,0.3916,0.3872,0.3862,0.3824,0.3812,0.3806,0.3839,0.3773,0.3779,0.3782,0.3785,0.3893,0.3905,0.3915,0,0,0,0,0,0.3938,0.3951,0.3954,0.3956,0.3953,0.3957,0.3954,0.3933,0.3922,0.3928,0.3901,0.3864,0.3827,0.3811,0.3803,0.3837,0.3777,0.3781,0.3785,0.3888,0.3902,0.3914,0,0,0,0,0,0,0.3939,0.3948,0.3949,0.3963,0.3968,0.395,0.3953,0.3946,0.3931,0.3926,0.388,0.387,0.3878,0.3843,0.3827,0.3849,0.3798,0.38,0.388,0.3893,0.3903,0.3923,0.3771,0,0,0,0,0,0.395,0.3963,0.3969,0.3979,0.3987,0.3977,0.3978,0.3968,0.3953,0.3946,0.3918,0.3894,0.3888,0.3877,0.3858,0.3867,0.3891,0.3885,0.3896,0.3906,0.3917,0.3967,0.3985,0.3798,0.3798,0.3798,0,0,0.3949,0.3959,0.3963,0.3981,0.3981,0.3999,0.3974,0.3981,0.3994,0.3939,0.3944,0.393,0.3899,0.3911,0.3912,0.3885,0.3986,0.391,0.3919,0.3925,0.3973,0.3992,0.4008,0.3801,0.38,0.38,0,0,0.3959,0.3971,0.3989,0.4002,0.4018,0.4016,0.4027,0.4024,0.4023,0.4032,0.4005,0.402,0.3988,0.399,0.3983,0.4045,0.4044,0.4034,0.4102,0.4152,0.4168,0.4183,0.4305,0.4329,0.4037,0.4037,0.4038,0,0.3962,0.3983,0.3993,0.402,0.4032,0.4032,0.4055,0.406,0.4054,0.4063,0.4043,0.4052,0.4032,0.4067,0.4095,0.4072,0.4118,0.4056,0.4169,0.4183,0.4196,0.4317,0.4342,0.4043,0.4043,0.4042,0.4041,0,0.3985,0.4008,0.402,0.4056,0.4076,0.4091,0.411,0.4128,0.413,0.4134,0.4168,0.4157,0.4158,0.417,0.4152,0.4234,0.425,0.4182,0.414,0.4222,0.4345,0.4369,0.4052,0.405,0.4048,0.4046,0,0,0.3961,0.4026,0.4026,0.4044,0.4095,0.41,0.4152,0.4185,0.4212,0.4224,0.4265,0.4288,0.4286,0.4281,0.4272,0.4329,0.449,0.4303,0.4303,0.4436,0.4667,0.4627,0.465,0.4436,0.444,0.4442,0.4743,0,0.397,0.4015,0.4056,0.4089,0.4108,0.4148,0.4187,0.4223,0.4256,0.4295,0.432,0.4356,0.4324,0.4349,0.4396,0.4454,0.4548,0.4419,0.4558,0.4564,0.4525,0.4673,0.4465,0.4708,0.4767,0.4771,0.4773,0,0.3963,0.3997,0.4038,0.4094,0.4108,0.4137,0.4201,0.4242,0.4318,0.4356,0.4409,0.4423,0.4525,0.4473,0.4641,0.456,0.4634,0.4686,0.4697,0.4628,0.4566,0.462,0.4749,0.4584,0.481,0.4807,0.4805,0,0.3898,0.3969,0.3996,0.4016,0.4092,0.4124,0.4169,0.4251,0.4281,0.4413,0.4445,0.4552,0.4582,0.4702,0.4777,0.474,0.4957,0.4909,0.4964,0.4965,0.4799,0.4778,0.4781,0.505,0.5049,0.5048,0.5047,0,0.3866,0.388,0.3965,0.3971,0.4,0.4083,0.413,0.4204,0.4301,0.4344,0.4457,0.4506,0.463,0.4729,0.4842,0.4979,0.501,0.5032,0.504,0.4839,0.4819,0.4669,0.4584,0.5059,0.5057,0.5055,0.5053,0,0.3779,0.3835,0.386,0.3944,0.3964,0.3985,0.4077,0.4109,0.4234,0.4303,0.4351,0.4485,0.467,0.4795,0.5002,0.5031,0.5061,0.5227,0.5022,0.4999,0.4909,0.4837,0.4768,0.4638,0.5415,0.5416,0.5416,0,0.374,0.3744,0.3811,0.3815,0.385,0.3901,0.3924,0.4057,0.4108,0.4281,0.43,0.4488,0.4615,0.4915,0.5053,0.5303,0.5083,0.5196,0.5078,0.4921,0.4849,0.467,0.455,0.4954,0.4951,0.4948,0.4946,0,0.3657,0.3679,0.3702,0.3717,0.3735,0.3758,0.3823,0.3846,0.4009,0.4089,0.4235,0.4373,0.4666,0.4801,0.5055,0.5166,0.4923,0.5154,0.5011,0.4526,0.4308,0.4175,0.4797,0.4923,0.4925,0.4927,0.4928,0.4929,0.3583,0.3576,0.3599,0.3605,0.3616,0.3613,0.3596,0.3688,0.3754,0.3862,0.4086,0.4224,0.4461,0.4831,0.4893,0.483,0.4862,0.4716,0.4675,0.4536,0.4274,0.4891,0.498,0.4983,0.4985,0.4987,0.4989,0,0.3473,0.3478,0.3482,0.3469,0.3431,0.3484,0.3506,0.3479,0.3512,0.3693,0.384,0.4026,0.417,0.433,0.4444,0.4344,0.4167,0.421,0.3874,0.3806,0.4385,0.4221,0.4117,0.4117,0.4117,0.4117,0.4118,0.4118,0.3411,0.3374,0.3384,0.3289,0.3275,0.3183,0.3169,0.3159,0.3242,0.3314,0.3397,0.3566,0.3825,0.3977,0.3904,0.3833,0.3543,0.3424,0.3432,0.3787,0.3827,0.3866,0.369,0.3476,0.3475,0.268,0.2674,0.2669]},{"header":{"parameterUnit":"m.s-1","parameterCategory":2,"la1":30.2991,"la2":30.254,"lo1":-89.0895,"lo2":-89.0444,"dy":0.0017,"dx":0.0017,"nx":28,"ny":28,"refTime":"2024-08-06T09:00:00:Z","depth":"0","parameterNumber":3,"parameterNumberName":"V-component_of_CURRENTS"},"data":[0,0,0,0,0,0,0,0,0,0,0,0,0,0,0,0,0,0,0,0,0,0,0,0,0,0,0,0,0,0,0,0,0,0,0,0,0,0,0,0,0,0,0,0,0,0,0,0,0,0,0,0,0,0,0,0,0,0,-0.0839,-0.084,0,-0.095,-0.0952,-0.0953,-0.1029,-0.1029,-0.1029,-0.103,-0.1092,-0.1093,-0.1094,0,0,0,0,0,0,0,0,0,0,0,0,0,-0.0765,-0.0765,-0.0839,-0.0841,-0.0842,-0.095,-0.0952,-0.0954,-0.1028,-0.1029,-0.1029,-0.103,-0.1091,-0.1093,-0.1095,0,0,0,0,0,0,0,0,0,0,0,0,0,-0.083,-0.0765,-0.0839,-0.0891,-0.0896,-0.095,-0.0952,-0.0954,-0.1028,-0.1029,-0.1029,-0.103,-0.1091,-0.1093,-0.1095,-0.1096,0,0,-0.1101,-0.1102,0,0,0,0,0,0,0,0,-0.0826,-0.0833,-0.0882,-0.0887,-0.0894,-0.0975,-0.0948,-0.0999,-0.1028,-0.098,-0.103,-0.103,-0.1046,-0.1052,-0.1075,-0.1099,-0.1102,-0.1101,-0.1102,-0.1103,-0.1104,0,0,0,0,0,0,0,-0.0821,-0.0829,-0.0885,-0.0883,-0.089,-0.0933,-0.0943,-0.0959,-0.1009,-0.0985,-0.099,-0.0999,-0.105,-0.1073,-0.1077,-0.1103,-0.1101,-0.1103,-0.1104,-0.1105,-0.1084,-0.1082,0,0,0,0,0,0,-0.0799,-0.0824,-0.0882,-0.0888,-0.0858,-0.0934,-0.0944,-0.095,-0.1011,-0.102,-0.0998,-0.1002,-0.107,-0.1075,-0.1079,-0.104,-0.1103,-0.1105,-0.1106,-0.1085,-0.1083,-0.1081,0,0,0,0,0,0,-0.0797,-0.0803,-0.0877,-0.0858,-0.087,-0.0933,-0.0939,-0.0951,-0.0971,-0.1021,-0.1031,-0.1005,-0.107,-0.1077,-0.108,-0.1044,-0.1106,-0.1108,-0.1087,-0.1085,-0.1082,-0.0989,0,0,0,0,0,0,-0.0795,-0.0802,-0.0797,-0.0856,-0.087,-0.0894,-0.0939,-0.0953,-0.0975,-0.0981,-0.1029,-0.1037,-0.1071,-0.1076,-0.1081,-0.1048,-0.1109,-0.109,-0.1086,-0.1083,-0.0994,-0.0984,-0.0974,0,0,0,0,0,-0.0792,-0.078,-0.0796,-0.0803,-0.0862,-0.0893,-0.0904,-0.0953,-0.0975,-0.0975,-0.1004,-0.1035,-0.1059,-0.1077,-0.1083,-0.105,-0.1091,-0.1087,-0.1083,-0.0999,-0.0986,-0.0975,0,0,0,0,0,0,-0.0747,-0.0788,-0.0807,-0.0809,-0.0841,-0.0905,-0.091,-0.0943,-0.097,-0.0972,-0.1021,-0.1029,-0.1017,-0.1043,-0.1062,-0.1032,-0.1076,-0.1074,-0.101,-0.0998,-0.0988,-0.0949,-0.1111,0,0,0,0,0,-0.0733,-0.0734,-0.0781,-0.0781,-0.0792,-0.0848,-0.0867,-0.0898,-0.0932,-0.0946,-0.0977,-0.0999,-0.1007,-0.1011,-0.1028,-0.1013,-0.1016,-0.0993,-0.0982,-0.0974,-0.0945,-0.0931,-0.0917,-0.1068,-0.1068,-0.1068,0,0,-0.0717,-0.0738,-0.074,-0.0771,-0.0801,-0.0799,-0.0861,-0.0879,-0.087,-0.0945,-0.0935,-0.0968,-0.0996,-0.0982,-0.0977,-0.0998,-0.093,-0.0969,-0.0961,-0.0936,-0.0925,-0.0911,-0.0897,-0.1066,-0.1066,-0.1067,0,0,-0.0675,-0.07,-0.0682,-0.0701,-0.0733,-0.0763,-0.076,-0.081,-0.0823,-0.0823,-0.0867,-0.0869,-0.0895,-0.0901,-0.0908,-0.0847,-0.088,-0.0859,-0.0774,-0.0762,-0.0749,-0.0738,-0.0712,-0.07,-0.0851,-0.085,-0.085,0,-0.0651,-0.0635,-0.0682,-0.0667,-0.0668,-0.0735,-0.0709,-0.0731,-0.0774,-0.0758,-0.0801,-0.0808,-0.0846,-0.0806,-0.0794,-0.0822,-0.0822,-0.0821,-0.0748,-0.0737,-0.0727,-0.0704,-0.0691,-0.0846,-0.0846,-0.0847,-0.0847,0,-0.0593,-0.0581,-0.0571,-0.0567,-0.0577,-0.0568,-0.06,-0.06,-0.0624,-0.0638,-0.0613,-0.0666,-0.0662,-0.0681,-0.0725,-0.0667,-0.0691,-0.0741,-0.0778,-0.0706,-0.0686,-0.0675,-0.0838,-0.084,-0.0842,-0.0843,0,0,-0.0517,-0.0527,-0.0517,-0.0497,-0.052,-0.0516,-0.049,-0.0472,-0.0435,-0.0472,-0.0415,-0.0448,-0.0479,-0.0487,-0.0542,-0.0541,-0.0488,-0.0608,-0.061,-0.0579,-0.0447,-0.046,-0.045,-0.0534,-0.0532,-0.053,-0.0457,0,-0.0447,-0.0398,-0.042,-0.036,-0.0335,-0.0373,-0.0338,-0.0332,-0.0339,-0.0303,-0.0335,-0.0313,-0.0404,-0.0405,-0.0412,-0.0476,-0.0454,-0.0501,-0.0522,-0.0521,-0.0541,-0.0435,-0.0425,-0.0359,-0.0446,-0.0445,-0.0443,0,-0.0361,-0.0342,-0.0278,-0.0246,-0.0235,-0.0208,-0.0155,-0.0135,-0.0108,-0.011,-0.0096,-0.0135,-0.0126,-0.0225,-0.0253,-0.0284,-0.0338,-0.0392,-0.0391,-0.0423,-0.0512,-0.0447,-0.0335,-0.0556,-0.0426,-0.0427,-0.0429,0,-0.0267,-0.0227,-0.017,-0.0163,-0.0146,-0.0106,-0.0088,-0.0062,-0.0022,0.0019,0.0052,0.0043,0.0045,-0.0022,-0.0133,-0.0191,-0.0164,-0.0262,-0.0307,-0.0309,-0.0309,-0.0315,-0.0407,-0.0244,-0.0244,-0.0244,-0.0245,0,-0.0174,-0.0124,-0.012,-0.0088,-0.0001,-0.0017,0.0077,0.0091,0.0135,0.0221,0.0161,0.0226,0.0092,0.0076,-0.0044,-0.0116,-0.0084,-0.0247,-0.0276,-0.0277,-0.028,-0.0483,-0.0589,-0.0242,-0.0242,-0.0243,-0.0243,0,-0.0085,-0.0084,-0.0015,0.0021,0.0043,0.0106,0.0166,0.0232,0.0255,0.0365,0.0387,0.0382,0.0372,0.0249,0.0157,0.0013,-0.0165,-0.01,-0.0083,-0.0111,-0.0403,-0.0502,-0.0557,-0.0628,-0.0144,-0.0143,-0.0143,0,-0.0047,-0.0003,0.0064,0.0109,0.0128,0.0206,0.0266,0.0299,0.0377,0.0477,0.0556,0.0573,0.0643,0.0504,0.027,0.0112,-0.0092,-0.0034,-0.015,-0.0373,-0.0506,-0.0591,-0.0654,-0.0109,-0.0108,-0.0108,-0.0107,0,0.0022,0.005,0.0099,0.0197,0.027,0.036,0.0455,0.0541,0.0614,0.0735,0.0907,0.0975,0.0831,0.0701,0.0427,0.0255,-0.0181,-0.0033,-0.0264,-0.0462,-0.0555,-0.0653,-0.0207,-0.0104,-0.0104,-0.0104,-0.0104,-0.0105,0.0064,0.0116,0.0186,0.0287,0.0383,0.0528,0.0642,0.078,0.097,0.1215,0.1218,0.1403,0.1075,0.072,0.0431,-0.0139,-0.0135,-0.0336,-0.0426,-0.0482,-0.0588,-0.0123,-0.0069,-0.0069,-0.0069,-0.0069,-0.0069,0,0.0102,0.0168,0.0265,0.0402,0.0537,0.0572,0.0779,0.0944,0.1234,0.148,0.1684,0.1665,0.1247,0.0738,-0.0011,-0.0448,-0.0629,-0.0705,-0.0845,-0.0883,-0.0465,-0.0507,-0.0546,-0.0546,-0.0546,-0.0546,-0.0546,-0.0545,0.0123,0.022,0.0283,0.0511,0.0622,0.0844,0.0988,0.1275,0.1511,0.1904,0.2074,0.2137,0.1717,0.0334,-0.0663,-0.0903,-0.1189,-0.124,-0.1385,-0.116,-0.1135,-0.1111,-0.118,-0.1359,-0.136,-0.1772,-0.1776,-0.1779]}],[{"header":{"parameterUnit":"m.s-1","parameterCategory":2,"la1":30.2991,"la2":30.254,"lo1":-89.0895,"lo2":-89.0444,"dy":0.0017,"dx":0.0017,"nx":28,"ny":28,"refTime":"2024-08-06T09:00:00:Z","depth":"2","parameterNumber":2,"parameterNumberName":"U-component_of_CURRENTS"},"data":[0,0,0,0,0,0,0,0,0,0,0,0,0,0,0,0,0,0,0,0,0,0,0,0,0,0,0,0,0,0,0,0,0,0,0,0,0,0,0,0,0,0,0,0,0,0,0,0,0,0,0,0,0,0,0,0,0,0,0.2959,0.2961,0,0.3052,0.3052,0.3052,0.3051,0.305,0.305,0.305,0.3052,0.3052,0.3053,0,0,0,0,0,0,0,0,0,0,0,0,0,0.2789,0.2791,0.2959,0.2961,0.2963,0.3052,0.3052,0.3053,0.3051,0.305,0.305,0.305,0.3052,0.3052,0.3053,0,0,0,0,0,0,0,0,0,0,0,0,0,0.2861,0.2792,0.2958,0.298,0.2984,0.3052,0.3052,0.3053,0.3051,0.305,0.305,0.3049,0.3052,0.3052,0.3053,0.3066,0,0,0.3055,0.3055,0,0,0,0,0,0,0,0,0.2857,0.2866,0.2975,0.2979,0.2983,0.3048,0.2994,0.3056,0.3051,0.3015,0.305,0.3049,0.305,0.305,0.3055,0.3066,0.3066,0.3055,0.3055,0.3055,0.3055,0,0,0,0,0,0,0,0.2852,0.2862,0.2985,0.2978,0.2983,0.299,0.2998,0.3005,0.3024,0.3018,0.302,0.3047,0.305,0.3055,0.3055,0.3066,0.3055,0.3055,0.3055,0.3056,0.3163,0.3165,0,0,0,0,0,0,0.2861,0.2857,0.2982,0.2989,0.2929,0.2994,0.3003,0.3019,0.3026,0.303,0.3048,0.3047,0.3054,0.3055,0.3055,0.3134,0.3055,0.3056,0.3056,0.3161,0.3164,0.3166,0,0,0,0,0,0,0.2857,0.2871,0.2979,0.2934,0.2949,0.2998,0.3016,0.3022,0.3047,0.3052,0.3052,0.3071,0.3054,0.3055,0.3087,0.3131,0.3056,0.3056,0.3158,0.3161,0.3165,0.325,0,0,0,0,0,0,0.2851,0.2869,0.2877,0.2934,0.2953,0.3017,0.3018,0.3024,0.3069,0.3069,0.3072,0.307,0.3054,0.3086,0.3087,0.3131,0.3057,0.3154,0.3159,0.3164,0.3244,0.3257,0.3267,0,0,0,0,0,0.2845,0.2858,0.2877,0.2892,0.2965,0.3018,0.3026,0.3053,0.3071,0.3075,0.3096,0.3071,0.3117,0.3088,0.3089,0.3134,0.3152,0.3158,0.3163,0.3239,0.3254,0.3267,0,0,0,0,0,0,0.2785,0.2863,0.2883,0.2918,0.2967,0.3022,0.3036,0.307,0.3093,0.3095,0.3097,0.3098,0.3143,0.3132,0.31,0.3182,0.3134,0.314,0.3191,0.3205,0.3216,0.3254,0.3057,0,0,0,0,0,0.2782,0.281,0.2884,0.291,0.2937,0.2994,0.3022,0.3047,0.3085,0.3095,0.3112,0.3134,0.3166,0.3179,0.3189,0.3231,0.3246,0.3265,0.3276,0.3286,0.332,0.3381,0.3401,0.3185,0.3185,0.3185,0,0,0.277,0.2815,0.2832,0.29,0.2937,0.2988,0.3005,0.3053,0.3105,0.3092,0.3151,0.3168,0.3186,0.3234,0.3254,0.3231,0.3354,0.3293,0.3301,0.333,0.3389,0.341,0.3429,0.3189,0.3188,0.3188,0,0,0.2768,0.2797,0.2828,0.2871,0.2943,0.2983,0.3007,0.3078,0.3111,0.3177,0.3192,0.3252,0.328,0.332,0.3342,0.3429,0.3409,0.3423,0.3514,0.3573,0.3591,0.3608,0.3644,0.3663,0.3431,0.3432,0.3432,0,0.2756,0.2807,0.2843,0.2888,0.2935,0.2989,0.3043,0.3089,0.3164,0.322,0.3201,0.3325,0.3333,0.3437,0.3474,0.3457,0.3475,0.3455,0.3588,0.3605,0.362,0.3653,0.3673,0.3436,0.3436,0.3435,0.3435,0,0.2785,0.2831,0.2851,0.2931,0.2974,0.3025,0.3105,0.3164,0.3221,0.3285,0.3397,0.3426,0.3505,0.3522,0.3529,0.3655,0.3627,0.359,0.3551,0.3647,0.3675,0.3694,0.3443,0.3442,0.344,0.3439,0,0,0.2778,0.2857,0.2876,0.2914,0.3006,0.3048,0.3143,0.326,0.3348,0.3419,0.354,0.3626,0.3658,0.3689,0.3704,0.3776,0.3898,0.3743,0.3744,0.3776,0.402,0.3875,0.3881,0.3879,0.3883,0.3886,0.3992,0,0.2806,0.2879,0.2927,0.3011,0.3055,0.3137,0.3222,0.3329,0.342,0.3538,0.3626,0.3724,0.3712,0.3761,0.3834,0.3886,0.3955,0.3872,0.3927,0.3929,0.3785,0.3901,0.3579,0.3637,0.4011,0.4014,0.4016,0,0.2843,0.2885,0.2962,0.3059,0.3091,0.3155,0.331,0.3394,0.3568,0.3647,0.377,0.3823,0.3969,0.3921,0.4073,0.4018,0.4043,0.4071,0.4074,0.3929,0.382,0.3605,0.3657,0.4048,0.4045,0.4043,0.4041,0,0.2821,0.2922,0.298,0.3014,0.3129,0.3201,0.3277,0.3437,0.3525,0.3724,0.3809,0.3958,0.4032,0.4113,0.417,0.4136,0.431,0.425,0.4145,0.4134,0.3869,0.3826,0.4364,0.4364,0.4364,0.4364,0.4363,0,0.2836,0.2889,0.2977,0.3011,0.3095,0.3186,0.3315,0.3423,0.3588,0.3702,0.3852,0.3957,0.4087,0.4184,0.4224,0.4245,0.4345,0.4201,0.4169,0.3886,0.3846,0.4203,0.4183,0.4368,0.4367,0.4366,0.4365,0,0.2799,0.2866,0.2927,0.3042,0.3082,0.314,0.3297,0.3384,0.356,0.3712,0.3779,0.3981,0.4108,0.4202,0.4334,0.4285,0.4339,0.4313,0.3964,0.3889,0.4111,0.4094,0.4221,0.4217,0.4214,0.4211,0.4209,0,0.276,0.2797,0.2911,0.2933,0.2987,0.3092,0.3162,0.3351,0.3443,0.3713,0.377,0.3956,0.4051,0.4183,0.4152,0.4181,0.4288,0.3883,0.3761,0.4149,0.4106,0.4094,0.4082,0.3446,0.3438,0.3431,0.3426,0,0.2666,0.2734,0.2766,0.2824,0.2893,0.2983,0.3099,0.3158,0.3388,0.3512,0.3646,0.3748,0.3894,0.3773,0.3825,0.3803,0.3851,0.3741,0.427,0.3517,0.3423,0.3378,0.3392,0.3365,0.3371,0.3375,0.3379,0.3381,0.2547,0.2563,0.2613,0.268,0.2766,0.2835,0.2851,0.2965,0.3061,0.3174,0.3356,0.3393,0.345,0.3342,0.3287,0.3262,0.3509,0.3358,0.3378,0.3406,0.3282,0.3185,0.306,0.3064,0.3068,0.3071,0.3074,0,0.2351,0.2427,0.2459,0.2532,0.2588,0.2697,0.2781,0.274,0.2769,0.2876,0.292,0.2681,0.265,0.2773,0.2634,0.2645,0.2622,0.2557,0.2495,0.2558,0.2613,0.2448,0.2005,0.2002,0.1998,0.1996,0,0,0.2259,0.2244,0.2314,0.2347,0.2422,0.2433,0.2452,0.2369,0.2383,0.2292,0.229,0.2409,0.2617,0.2202,0.219,0.2085,0.2297,0.2012,0.2869,0.2854,0.2904,0.3078,0.2894,0,0,0,0,0]},{"header":{"parameterUnit":"m.s-1","parameterCategory":2,"la1":30.2991,"la2":30.254,"lo1":-89.0895,"lo2":-89.0444,"dy":0.0017,"dx":0.0017,"nx":28,"ny":28,"refTime":"2024-08-06T09:00:00:Z","depth":"2","parameterNumber":3,"parameterNumberName":"V-component_of_CURRENTS"},"data":[0,0,0,0,0,0,0,0,0,0,0,0,0,0,0,0,0,0,0,0,0,0,0,0,0,0,0,0,0,0,0,0,0,0,0,0,0,0,0,0,0,0,0,0,0,0,0,0,0,0,0,0,0,0,0,0,0,0,0.0236,0.0234,0,0.0124,0.0124,0.0123,0.006,0.0059,0.0057,0.0056,-0.0066,-0.0068,-0.007,0,0,0,0,0,0,0,0,0,0,0,0,0,0.0427,0.0425,0.0237,0.0234,0.0231,0.0124,0.0124,0.0123,0.0061,0.0059,0.0057,0.0055,-0.0066,-0.0068,-0.007,0,0,0,0,0,0,0,0,0,0,0,0,0,0.0346,0.0424,0.0237,0.0176,0.0169,0.0124,0.0124,0.0123,0.0061,0.0059,0.0056,0.0054,-0.0065,-0.0068,-0.007,-0.0042,0,0,-0.0079,-0.008,0,0,0,0,0,0,0,0,0.0351,0.0341,0.0188,0.018,0.0171,0.0091,0.0145,0.0063,0.0061,0.0117,0.0056,0.0053,-0.0022,-0.0029,-0.0024,-0.0047,-0.0053,-0.0079,-0.0081,-0.0082,-0.0083,0,0,0,0,0,0,0,0.0357,0.0346,0.0207,0.0185,0.0175,0.0163,0.0151,0.0131,0.0073,0.0112,0.0104,0.0069,-0.0025,-0.0021,-0.0028,-0.0054,-0.0079,-0.0081,-0.0083,-0.0084,-0.0202,-0.0204,0,0,0,0,0,0,0.0342,0.0351,0.021,0.0202,0.0241,0.0161,0.0147,0.0131,0.0073,0.0057,0.0071,0.0066,-0.0015,-0.0024,-0.0032,-0.0098,-0.0082,-0.0084,-0.0086,-0.0201,-0.0202,-0.0204,0,0,0,0,0,0,0.0347,0.0332,0.0214,0.0261,0.0243,0.0158,0.0141,0.013,0.009,0.0039,0.0026,0.0036,-0.0017,-0.0029,-0.0085,-0.01,-0.0086,-0.0088,-0.0199,-0.0201,-0.0203,-0.0167,0,0,0,0,0,0,0.0354,0.0335,0.0335,0.0261,0.0239,0.0194,0.0142,0.0129,0.0067,0.0059,0.0005,-0.0006,-0.002,-0.0081,-0.0088,-0.0103,-0.009,-0.0197,-0.02,-0.0203,-0.0167,-0.0168,-0.0169,0,0,0,0,0,0.0362,0.0374,0.0336,0.0318,0.0237,0.0193,0.0185,0.0126,0.0067,0.0077,0.0009,-0.0006,-0.0104,-0.0084,-0.0092,-0.0108,-0.0196,-0.0199,-0.0202,-0.0166,-0.0168,-0.0169,0,0,0,0,0,0,0.0456,0.0365,0.0322,0.0305,0.0249,0.0177,0.0173,0.0108,0.0065,0.0042,-0.0015,-0.0029,-0.0083,-0.0107,-0.0084,-0.0156,-0.0156,-0.0161,-0.0126,-0.0128,-0.0129,-0.0101,-0.0093,0,0,0,0,0,0.0473,0.0456,0.0366,0.0349,0.0324,0.0238,0.0209,0.0158,0.0094,0.0072,0.001,-0.0052,-0.0093,-0.0123,-0.0153,-0.0186,-0.0187,-0.0209,-0.0211,-0.0211,-0.0197,-0.0195,-0.0193,-0.0215,-0.0215,-0.0215,0,0,0.0495,0.0445,0.0431,0.0367,0.0321,0.029,0.022,0.0172,0.0132,0.0066,-0.0,-0.0054,-0.0105,-0.0141,-0.0169,-0.017,-0.0213,-0.0216,-0.0215,-0.0201,-0.0198,-0.0195,-0.0193,-0.0217,-0.0217,-0.0217,0,0,0.0524,0.0496,0.0482,0.0448,0.0366,0.0324,0.0296,0.02,0.0156,0.0088,0.002,-0.0045,-0.0117,-0.0151,-0.0177,-0.0207,-0.0217,-0.0238,-0.022,-0.0218,-0.0215,-0.0212,-0.0227,-0.0225,-0.024,-0.024,-0.024,0,0.0548,0.052,0.0474,0.0453,0.0426,0.033,0.0309,0.0262,0.015,0.0118,0.007,-0.0054,-0.0111,-0.015,-0.0179,-0.0205,-0.0213,-0.0203,-0.0214,-0.0212,-0.0209,-0.0225,-0.0224,-0.0239,-0.0239,-0.0239,-0.024,0,0.0551,0.0537,0.0534,0.0476,0.0457,0.043,0.035,0.03,0.0215,0.0158,0.0082,0.0002,-0.0065,-0.0112,-0.0161,-0.0188,-0.0204,-0.0209,-0.0196,-0.0204,-0.0222,-0.0221,-0.0237,-0.0238,-0.0238,-0.0238,0,0,0.0559,0.054,0.0528,0.0528,0.0467,0.045,0.0402,0.0345,0.0313,0.0206,0.0177,0.0057,0.0004,-0.0032,-0.0107,-0.0137,-0.0157,-0.0177,-0.0177,-0.0167,-0.0165,-0.02,-0.0203,-0.0159,-0.0159,-0.0158,-0.0189,0,0.056,0.0556,0.0537,0.0534,0.0534,0.0477,0.046,0.0401,0.0334,0.0293,0.02,0.015,0.0041,0.0003,-0.0043,-0.011,-0.0151,-0.0148,-0.0181,-0.0182,-0.0191,-0.0202,-0.0192,-0.0221,-0.0188,-0.0188,-0.0188,0,0.0549,0.0554,0.0561,0.0588,0.0582,0.0569,0.0541,0.0511,0.0449,0.0401,0.0333,0.0267,0.0192,0.0109,0.0002,0.0009,-0.0085,-0.0147,-0.0148,-0.0186,-0.0215,-0.0209,-0.0221,-0.0187,-0.0187,-0.0187,-0.0187,0,0.0572,0.0575,0.0593,0.0592,0.0595,0.0588,0.0584,0.0536,0.0535,0.0473,0.0473,0.0378,0.0349,0.0234,0.0073,0.0044,-0.0025,-0.0066,-0.0189,-0.0193,-0.0193,-0.0198,-0.0142,-0.0142,-0.0142,-0.0141,-0.0141,0,0.0588,0.0595,0.0607,0.061,0.0658,0.0639,0.0659,0.0636,0.0623,0.0667,0.0539,0.056,0.0379,0.0308,0.0143,-0.001,0.0034,-0.0182,-0.0198,-0.0187,-0.019,-0.0164,-0.0166,-0.0143,-0.0142,-0.0142,-0.0142,0,0.0609,0.0602,0.0641,0.0658,0.067,0.0704,0.0736,0.075,0.0726,0.0782,0.0777,0.0714,0.0621,0.0427,0.0263,0.0098,-0.0054,-0.0129,-0.0118,-0.0134,-0.0247,-0.0248,-0.026,-0.0262,-0.0263,-0.0264,-0.0265,0,0.0638,0.0647,0.0691,0.0728,0.0735,0.0771,0.0802,0.0798,0.0843,0.0892,0.0956,0.0877,0.0854,0.0587,0.0276,-0.0002,-0.0044,-0.0186,-0.0255,-0.0242,-0.0257,-0.0255,-0.0254,-0.025,-0.0251,-0.0251,-0.0252,0,0.0705,0.0697,0.0738,0.0813,0.0855,0.0911,0.0973,0.1045,0.1074,0.1136,0.125,0.124,0.0947,0.0674,0.0256,0.0063,-0.0142,-0.0207,-0.0161,-0.0226,-0.0236,-0.0249,-0.0248,-0.0256,-0.0256,-0.0255,-0.0255,-0.0255,0.0788,0.0827,0.0872,0.0933,0.0969,0.1067,0.1167,0.126,0.1395,0.1506,0.1475,0.1422,0.1058,0.0514,0.0191,-0.0176,-0.0178,-0.0315,-0.0311,-0.0308,-0.0306,-0.0318,-0.0353,-0.0353,-0.0354,-0.0354,-0.0354,0,0.0926,0.0923,0.0992,0.1075,0.1118,0.112,0.1282,0.1398,0.1601,0.163,0.1671,0.1319,0.0974,0.0572,0.0015,-0.0306,-0.0327,-0.0391,-0.0352,-0.0346,-0.0341,-0.034,-0.0397,-0.0398,-0.0398,-0.0399,0,0,0.0992,0.1064,0.1064,0.1174,0.1218,0.134,0.1456,0.1643,0.1719,0.1778,0.1686,0.1497,0.1032,0.0619,0.019,-0.0097,-0.0142,-0.0152,-0.0089,0.0012,0.0022,-0.0278,-0.0267,0,0,0,0,0]}],[{"header":{"parameterUnit":"m.s-1","parameterCategory":2,"la1":30.2991,"la2":30.254,"lo1":-89.0895,"lo2":-89.0444,"dy":0.0017,"dx":0.0017,"nx":28,"ny":28,"refTime":"2024-08-06T09:00:00:Z","depth":"4","parameterNumber":2,"parameterNumberName":"U-component_of_CURRENTS"},"data":[0,0,0,0,0,0,0,0,0,0,0,0,0,0,0,0,0,0,0,0,0,0,0,0,0,0,0,0,0,0,0,0,0,0,0,0,0,0,0,0,0,0,0,0,0,0,0,0,0,0,0,0,0,0,0,0,0,0,0.1015,0.1016,0,0.107,0.107,0.107,0.1147,0.1148,0.115,0.1152,0.1278,0.128,0.1282,0,0,0,0,0,0,0,0,0,0,0,0,0,0.0914,0.0915,0.1015,0.1016,0.1017,0.1069,0.107,0.107,0.1147,0.1148,0.115,0.1152,0.1278,0.128,0.1282,0,0,0,0,0,0,0,0,0,0,0,0,0,0.0959,0.0916,0.1015,0.1064,0.1069,0.1069,0.107,0.107,0.1146,0.1149,0.1151,0.1153,0.1277,0.1279,0.1282,0.1251,0,0,0.1291,0.1292,0,0,0,0,0,0,0,0,0.0956,0.0962,0.1056,0.1061,0.1067,0.1107,0.1081,0.1136,0.1145,0.1113,0.1152,0.1154,0.1228,0.1235,0.1234,0.1257,0.1262,0.1291,0.1293,0.1294,0.1295,0,0,0,0,0,0,0,0.0953,0.096,0.1034,0.1057,0.1063,0.1062,0.1071,0.1091,0.1155,0.1116,0.1123,0.1133,0.1231,0.1231,0.1238,0.1264,0.1291,0.1293,0.1295,0.1296,0.1401,0.1402,0,0,0,0,0,0,0.0954,0.0957,0.1032,0.1035,0.102,0.1062,0.1072,0.1089,0.1154,0.1166,0.1131,0.1137,0.1225,0.1234,0.1243,0.1348,0.1294,0.1297,0.1298,0.14,0.1401,0.1402,0,0,0,0,0,0,0.0952,0.096,0.103,0.1,0.1009,0.1062,0.1079,0.1089,0.113,0.1165,0.1179,0.1169,0.1227,0.1239,0.1318,0.1349,0.1298,0.13,0.1398,0.14,0.1402,0.147,0,0,0,0,0,0,0.0948,0.0959,0.0979,0.1,0.1011,0.1062,0.1078,0.1088,0.1132,0.1141,0.12,0.1212,0.123,0.1313,0.132,0.1352,0.1303,0.1397,0.1399,0.1401,0.1467,0.1474,0.148,0,0,0,0,0,0.0945,0.0956,0.098,0.0989,0.1034,0.1063,0.1069,0.1111,0.1132,0.1155,0.1212,0.1213,0.133,0.1317,0.1325,0.1358,0.1396,0.1398,0.1401,0.1464,0.1473,0.148,0,0,0,0,0,0,0.0905,0.0965,0.0992,0.1018,0.1056,0.1079,0.11,0.1126,0.1182,0.1205,0.1237,0.1253,0.133,0.1329,0.1314,0.1391,0.1358,0.1362,0.1403,0.1412,0.1418,0.1352,0.1305,0,0,0,0,0,0.0909,0.0947,0.0992,0.1014,0.1037,0.1074,0.1094,0.1127,0.1173,0.1201,0.1242,0.1286,0.1333,0.1366,0.1399,0.1443,0.1456,0.1464,0.1471,0.1477,0.1427,0.1549,0.1564,0.141,0.141,0.141,0,0,0.0909,0.0936,0.0965,0.1011,0.1041,0.1075,0.1093,0.1137,0.1171,0.1204,0.1272,0.1317,0.1351,0.1413,0.1444,0.1427,0.1525,0.148,0.1485,0.143,0.1554,0.1569,0.1582,0.1412,0.1412,0.1411,0,0,0.0901,0.0945,0.0975,0.1009,0.1064,0.109,0.1112,0.1163,0.1201,0.1269,0.1304,0.1378,0.1432,0.1472,0.1497,0.1555,0.1561,0.1559,0.1543,0.1665,0.1679,0.1691,0.1718,0.1732,0.1561,0.1561,0.1561,0,0.0897,0.0934,0.0985,0.101,0.1043,0.1102,0.1137,0.1173,0.1245,0.1272,0.1306,0.142,0.1459,0.1536,0.1539,0.1573,0.1601,0.1518,0.1677,0.1689,0.17,0.1725,0.174,0.1565,0.1564,0.1564,0.1564,0,0.0907,0.0946,0.0961,0.1024,0.1067,0.1104,0.1169,0.1227,0.1284,0.1306,0.1408,0.1484,0.1567,0.1577,0.1564,0.1651,0.163,0.1682,0.1659,0.172,0.1741,0.1756,0.157,0.1569,0.1568,0.1567,0,0,0.0868,0.0957,0.0963,0.0996,0.1082,0.111,0.1191,0.1257,0.1323,0.1388,0.1469,0.1532,0.1587,0.1612,0.1654,0.1693,0.1796,0.1689,0.1694,0.1716,0.1997,0.1852,0.1853,0.1892,0.1895,0.1898,0.1976,0,0.0862,0.0907,0.0961,0.1018,0.1055,0.1144,0.1215,0.1286,0.1371,0.1462,0.1526,0.163,0.1605,0.1693,0.1735,0.178,0.1835,0.1763,0.1927,0.1929,0.1799,0.1867,0.1907,0.1987,0.199,0.1992,0.1994,0,0.085,0.0884,0.0948,0.1035,0.1063,0.1125,0.1269,0.1338,0.1462,0.1541,0.1652,0.1716,0.179,0.1801,0.1911,0.1869,0.1922,0.1934,0.1942,0.1776,0.1811,0.1914,0.2019,0.2017,0.2015,0.2014,0.2012,0,0.0792,0.0866,0.0919,0.0949,0.1069,0.1142,0.1225,0.1366,0.144,0.1624,0.1716,0.1825,0.1941,0.2003,0.2024,0.2006,0.2106,0.2144,0.2057,0.2046,0.2122,0.2108,0.225,0.225,0.225,0.225,0.225,0,0.0751,0.0781,0.091,0.0937,0.103,0.1129,0.1255,0.1377,0.1539,0.1617,0.1777,0.1869,0.1999,0.2067,0.2066,0.207,0.2201,0.2023,0.2066,0.2145,0.2133,0.2131,0.2116,0.2253,0.2252,0.2252,0.2251,0,0.0677,0.0751,0.081,0.0951,0.1013,0.1086,0.1268,0.1351,0.1541,0.1678,0.1749,0.1927,0.2033,0.2107,0.221,0.2148,0.216,0.2149,0.2159,0.2206,0.1995,0.1983,0.2058,0.2054,0.205,0.2047,0.2045,0,0.0644,0.0681,0.0822,0.0873,0.095,0.1076,0.1175,0.1357,0.1436,0.167,0.1708,0.1896,0.1997,0.2012,0.2093,0.2135,0.2125,0.2109,0.2064,0.1945,0.1981,0.1975,0.1967,0.2039,0.2038,0.2037,0.2036,0,0.0588,0.0654,0.0696,0.0822,0.0926,0.1014,0.1155,0.1203,0.1399,0.1564,0.1672,0.1755,0.187,0.193,0.2,0.2009,0.2091,0.2072,0.2079,0.2037,0.1924,0.1961,0.1958,0.2024,0.2026,0.2027,0.2027,0,0.0548,0.0563,0.0651,0.0744,0.0858,0.0936,0.1015,0.112,0.1227,0.1481,0.1484,0.1685,0.1832,0.1864,0.1888,0.1922,0.1909,0.1838,0.1858,0.1872,0.1774,0.16,0.1624,0,0,0,0,0,0.0512,0.0517,0.0581,0.0662,0.0765,0.0845,0.0994,0.1067,0.1242,0.129,0.1398,0.1501,0.1613,0.1678,0.1686,0.1796,0.1898,0.179,0.182,0.1955,0.1969,0.187,0,0,0,0,0,0,0.0478,0.0517,0.0537,0.0587,0.063,0.074,0.0832,0.0949,0.0977,0.1164,0.1234,0.1383,0.1508,0.1602,0.1647,0.1672,0.1655,0.1903,0.1899,0.1947,0.196,0.1971,0.1874,0,0,0,0,0]},{"header":{"parameterUnit":"m.s-1","parameterCategory":2,"la1":30.2991,"la2":30.254,"lo1":-89.0895,"lo2":-89.0444,"dy":0.0017,"dx":0.0017,"nx":28,"ny":28,"refTime":"2024-08-06T09:00:00:Z","depth":"4","parameterNumber":3,"parameterNumberName":"V-component_of_CURRENTS"},"data":[0,0,0,0,0,0,0,0,0,0,0,0,0,0,0,0,0,0,0,0,0,0,0,0,0,0,0,0,0,0,0,0,0,0,0,0,0,0,0,0,0,0,0,0,0,0,0,0,0,0,0,0,0,0,0,0,0,0,0.0285,0.0284,0,0.0247,0.0246,0.0245,0.0231,0.0231,0.0232,0.0232,0.019,0.0189,0.0187,0,0,0,0,0,0,0,0,0,0,0,0,0,0.0296,0.0296,0.0285,0.0284,0.0284,0.0247,0.0246,0.0245,0.0231,0.0231,0.0232,0.0232,0.0191,0.0189,0.0187,0,0,0,0,0,0,0,0,0,0,0,0,0,0.0276,0.0296,0.0285,0.0274,0.0273,0.0247,0.0246,0.0245,0.0231,0.0231,0.0232,0.0232,0.0191,0.0189,0.0187,0.0164,0,0,0.018,0.018,0,0,0,0,0,0,0,0,0.0277,0.0275,0.0276,0.0275,0.0274,0.0246,0.0235,0.0218,0.0231,0.0244,0.0232,0.0232,0.021,0.0206,0.0194,0.0162,0.016,0.018,0.0179,0.0178,0.0177,0,0,0,0,0,0,0,0.0279,0.0277,0.0267,0.0276,0.0274,0.0255,0.0253,0.0231,0.0223,0.0243,0.0243,0.0242,0.0209,0.0196,0.0193,0.0159,0.018,0.0178,0.0177,0.0176,0.0109,0.0108,0,0,0,0,0,0,0.029,0.0278,0.0268,0.0266,0.0279,0.0255,0.0252,0.0252,0.0223,0.022,0.0242,0.0241,0.02,0.0196,0.0192,0.0172,0.0178,0.0176,0.0175,0.0109,0.0109,0.0108,0,0,0,0,0,0,0.0291,0.029,0.027,0.0273,0.027,0.0255,0.0255,0.0252,0.0248,0.0222,0.0219,0.0243,0.02,0.0195,0.0179,0.017,0.0175,0.0173,0.011,0.0109,0.0108,0.0126,0,0,0,0,0,0,0.0291,0.029,0.0294,0.0274,0.027,0.0259,0.0254,0.025,0.0248,0.0247,0.0222,0.0218,0.02,0.0183,0.0177,0.0167,0.0171,0.011,0.0109,0.0109,0.0126,0.0126,0.0126,0,0,0,0,0,0.0292,0.0293,0.0294,0.0293,0.0276,0.0259,0.0255,0.0244,0.0248,0.0244,0.0229,0.0219,0.0172,0.0181,0.0174,0.0163,0.0111,0.011,0.0109,0.0126,0.0126,0.0126,0,0,0,0,0,0,0.0292,0.0292,0.0292,0.0292,0.0281,0.0258,0.0256,0.025,0.0234,0.0238,0.0216,0.021,0.019,0.0175,0.0185,0.014,0.0138,0.0136,0.0154,0.0153,0.0153,0.0147,0.017,0,0,0,0,0,0.0297,0.0304,0.0293,0.0292,0.0292,0.0277,0.027,0.0263,0.0248,0.0242,0.0224,0.0202,0.0177,0.0167,0.0143,0.0122,0.0092,0.0109,0.0109,0.0109,0.0099,0.0059,0.0054,0.0104,0.0104,0.0104,0,0,0.0301,0.0298,0.0303,0.0294,0.0287,0.0285,0.0273,0.0268,0.0261,0.0239,0.0227,0.0203,0.0172,0.0146,0.0136,0.0135,0.0077,0.0108,0.0108,0.0098,0.0057,0.0052,0.0048,0.0103,0.0104,0.0104,0,0,0.0307,0.0306,0.0317,0.0309,0.0303,0.0293,0.0296,0.0279,0.0268,0.0254,0.0232,0.0206,0.0175,0.0145,0.0128,0.0113,0.0078,0.0103,0.0096,0.0058,0.0054,0.0049,-0.0003,-0.0012,0.0103,0.0103,0.0103,0,0.031,0.0319,0.0314,0.0316,0.0313,0.0302,0.0306,0.029,0.0268,0.0249,0.0256,0.0194,0.0173,0.0129,0.0119,0.0112,0.0077,0.0103,0.0058,0.0053,0.0049,-0.0004,-0.0014,0.0104,0.0103,0.0103,0.0103,0,0.0322,0.033,0.0333,0.0338,0.0331,0.033,0.0315,0.0306,0.0298,0.0268,0.023,0.0201,0.0167,0.0148,0.0127,0.0076,0.0057,0.0065,0.0061,0.0045,-0.001,-0.0021,0.0105,0.0104,0.0104,0.0104,0,0,0.033,0.0343,0.0344,0.0349,0.0343,0.0336,0.0331,0.0306,0.0302,0.0264,0.0239,0.0186,0.0165,0.0143,0.0115,0.0068,0.0003,0.0047,0.0045,-0.0002,-0.0103,-0.0085,-0.0095,0.0002,0.0,-0.0001,-0.013,0,0.0344,0.036,0.0357,0.0366,0.0375,0.036,0.0358,0.0329,0.0309,0.0279,0.0221,0.02,0.0166,0.0166,0.0105,0.0035,-0.0025,0.0036,-0.0084,-0.0088,-0.0067,-0.0106,-0.0006,-0.0139,-0.0141,-0.0143,-0.0144,0,0.0356,0.0367,0.039,0.0389,0.0391,0.04,0.0393,0.0385,0.0335,0.0322,0.0276,0.0234,0.0159,0.0151,0.0005,0.0044,-0.0035,-0.0097,-0.0103,-0.0101,-0.009,-0.0119,-0.0165,-0.0163,-0.0162,-0.016,-0.0159,0,0.0369,0.0381,0.0403,0.0404,0.041,0.0422,0.0426,0.0401,0.04,0.0362,0.0366,0.0258,0.024,0.0116,-0.0008,-0.0003,-0.0176,-0.0171,-0.0241,-0.0241,-0.0224,-0.0218,-0.0284,-0.0284,-0.0284,-0.0284,-0.0283,0,0.0379,0.0389,0.0422,0.0434,0.0469,0.0455,0.0482,0.0482,0.0469,0.047,0.0404,0.0383,0.0231,0.0117,-0.0014,-0.0162,-0.0173,-0.0262,-0.0275,-0.0215,-0.0207,-0.0233,-0.0225,-0.0288,-0.0287,-0.0286,-0.0286,0,0.0385,0.0404,0.0432,0.0463,0.0486,0.0512,0.0549,0.0565,0.0564,0.0575,0.0575,0.0466,0.0332,0.0166,-0.0037,-0.0138,-0.0292,-0.0342,-0.0283,-0.0287,-0.0339,-0.0329,-0.0442,-0.0443,-0.0443,-0.0443,-0.0444,0,0.0389,0.0415,0.0475,0.0508,0.0534,0.0578,0.0623,0.0633,0.0649,0.0621,0.0623,0.0506,0.042,0.0141,-0.0045,-0.029,-0.0316,-0.04,-0.0372,-0.0355,-0.0357,-0.0346,-0.0336,-0.0444,-0.0444,-0.0445,-0.0445,0,0.0402,0.0435,0.0457,0.0552,0.0615,0.0667,0.0722,0.0738,0.0746,0.0745,0.0678,0.0537,0.0374,0.0143,-0.0034,-0.0216,-0.0348,-0.0405,-0.0406,-0.038,-0.0359,-0.0358,-0.0348,-0.0446,-0.0446,-0.0446,-0.0446,0,0.0414,0.0438,0.0498,0.0571,0.0661,0.0738,0.0753,0.0771,0.0788,0.0762,0.072,0.0556,0.0443,0.0178,-0.0003,-0.0159,-0.0202,-0.0252,-0.0261,-0.0262,-0.0164,-0.0108,-0.0144,0,0,0,0,0,0.0426,0.0453,0.0515,0.0593,0.0688,0.0762,0.0815,0.0816,0.0825,0.0804,0.0769,0.0623,0.0364,0.0218,0.0067,-0.0028,-0.0242,-0.0214,-0.0306,-0.0454,-0.0453,-0.0366,0,0,0,0,0,0,0.0425,0.0479,0.0507,0.062,0.0692,0.0807,0.0858,0.086,0.0825,0.0802,0.0657,0.0599,0.033,0.0474,0.0074,0.002,-0.006,-0.0337,-0.0341,-0.0455,-0.0454,-0.0452,-0.0362,0,0,0,0,0]}]]